Location: Hohe Wand Waldeggerhaus
(47.8500°N, 16.0440°E)
Time: 07:05:05
(UTC+02:00)

Envisat - Pass Details

Date: 27 May 2024
Orbit: 762 x 764 km, 98.3° (Epoch: 13 June)

Event Time Altitude Azimuth Distance (km) Brightness Sun altitude
Rises 02:41:47 0° 33° (NNE) 3,237 8.0 -16.6°
Reaches altitude 10° 02:45:52 10° 65° (ENE) 2,303 6.2 -16.3°
Maximum altitude 02:47:36 12° 86° (E) 2,185 5.8 -16.2°
Drops below altitude 10° 02:49:21 10° 106° (ESE) 2,297 5.6 -16.0°
Sets 02:53:23 0° 138° (SE) 3,215 6.0 -15.7°
